[[{"header":{"parameterUnit":"m.s-1","parameterCategory":1,"la1":30.2992,"la2":30.254,"lo1":-89.0895,"lo2":-89.0443,"dy":0.0025,"dx":0.0025,"nx":19,"ny":19,"refTime":"2026-05-17T03:00:00:Z","depth":0,"parameterNumber":2,"parameterNumberName":"U-component_of_WINDS"},"data":[0,0,0,-2.3689,-2.3689,-2.3678,-2.3678,-2.3677,-2.3677,0,0,0,0,0,0,0,0,0,0,0,-2.37,-2.37,-2.3689,-2.3689,-2.3678,-2.3678,-2.3677,-2.3677,0,0,0,0,0,0,0,0,0,0,0,-2.3699,-2.37,-2.37,-2.3689,-2.3678,-2.3678,-2.3677,-2.368,0,0,0,0,0,0,0,0,0,0,-2.3689,-2.3706,-2.37,-2.37,-2.3689,-2.3678,-2.3678,-2.368,-2.368,-2.3687,0,-2.3695,0,-2.3686,-2.3678,-2.3678,0,0,0,-2.3683,-2.3706,-2.3696,-2.37,-2.3689,-2.3678,-2.3681,-2.368,-2.368,-2.3687,-2.3695,-2.3695,-2.3686,-2.3678,-2.3678,-2.3738,-2.3739,0,0,-2.3683,-2.3702,-2.3697,-2.3697,-2.3699,-2.3681,-2.3681,-2.368,-2.369,-2.3695,-2.3695,-2.3686,-2.3678,-2.3678,-2.3738,-2.3738,0,0,0,-2.3689,-2.3702,-2.3692,-2.3697,-2.3694,-2.3681,-2.368,-2.369,-2.3685,-2.3695,-2.3686,-2.3678,-2.3678,-2.3737,-2.3738,-2.3783,0,0,0,-2.3689,-2.3705,-2.3693,-2.3704,-2.3694,-2.3692,-2.3691,-2.3685,-2.3684,-2.3686,-2.3678,-2.3678,-2.3736,-2.3738,-2.378,-2.3801,0,0,0,-2.3698,-2.3706,-2.3707,-2.3705,-2.3701,-2.3691,-2.3686,-2.3685,-2.368,-2.3678,-2.3678,-2.3736,-2.3737,-2.3778,-2.3797,-2.3823,0,0,0,-2.3712,-2.3747,-2.3708,-2.3745,-2.3701,-2.3719,-2.3686,-2.3699,-2.3702,-2.3678,-2.3737,-2.3738,-2.3777,-2.3795,-2.382,-2.3847,-2.386,0,0,-2.3766,-2.3754,-2.3774,-2.3739,-2.3769,-2.372,-2.3756,-2.3742,-2.3725,-2.3735,-2.3736,-2.3781,-2.3797,-2.3822,-2.3926,-2.3937,0,0,0,-2.3798,-2.3812,-2.3816,-2.3821,-2.3811,-2.3805,-2.3784,-2.3779,-2.3786,-2.3734,-2.3797,-2.3805,-2.3819,-2.3832,-2.384,-2.3851,-2.3744,-2.3744,-2.3744,-2.39,-2.3878,-2.3909,-2.3886,-2.3891,-2.3869,-2.3871,-2.3861,-2.3835,-2.3851,-2.3853,-2.392,-2.3934,-2.3941,-2.3953,-2.3866,-2.3866,-2.3866,-2.3866,-2.3978,-2.3996,-2.3963,-2.3982,-2.3958,-2.3973,-2.3954,-2.3936,-2.3948,-2.3915,-2.3927,-2.3893,-2.3953,-2.3962,-2.3869,-2.3869,-2.3869,-2.3868,-2.3868,-2.4043,-2.4048,-2.4041,-2.4046,-2.4053,-2.4027,-2.404,-2.4018,-2.3997,-2.4008,-2.4009,-2.4008,-2.4004,-2.401,-2.401,-2.401,-2.4011,-2.4011,-2.4011,-2.4113,-2.4104,-2.4118,-2.4112,-2.4112,-2.411,-2.409,-2.409,-2.4084,-2.4067,-2.4066,-2.4041,-2.3963,-2.3944,-2.4014,-2.4014,-2.4013,-2.4013,-2.4013,-2.42,-2.4177,-2.4198,-2.4199,-2.419,-2.4199,-2.417,-2.4172,-2.4169,-2.4177,-2.4149,-2.4095,-2.4081,-2.4074,-2.4058,-2.4153,-2.4153,-2.4153,-2.4153,-2.4255,-2.4246,-2.4263,-2.4265,-2.4265,-2.4242,-2.4267,-2.4253,-2.4233,-2.423,-2.4213,-2.419,-2.4184,-2.4174,-2.4164,-2.4149,-2.4266,-2.4266,-2.4266,-2.4308,-2.4298,-2.4323,-2.4304,-2.4296,-2.429,-2.4313,-2.4318,-2.4292,-2.427,-2.4227,-2.4223,-2.4185,-2.4174,-2.4151,-2.4137,-2.4109,0,0]},{"header":{"parameterUnit":"m.s-1","parameterCategory":1,"la1":30.2992,"la2":30.254,"lo1":-89.0895,"lo2":-89.0443,"dy":0.0025,"dx":0.0025,"nx":19,"ny":19,"refTime":"2026-05-17T03:00:00:Z","depth":0,"parameterNumber":3,"parameterNumberName":"V-component_of_WINDS"},"data":[0,0,0,4.5716,4.5716,4.5709,4.5709,4.5705,4.5705,0,0,0,0,0,0,0,0,0,0,0,4.5723,4.5723,4.5716,4.5716,4.5709,4.5709,4.5705,4.5705,0,0,0,0,0,0,0,0,0,0,0,4.5723,4.5723,4.5723,4.5716,4.5709,4.5709,4.5705,4.5708,0,0,0,0,0,0,0,0,0,0,4.5715,4.5725,4.5723,4.5723,4.5716,4.5709,4.5709,4.5708,4.5708,4.5711,0,4.5716,0,4.5711,4.5705,4.5705,0,0,0,4.5713,4.5725,4.5719,4.5723,4.5716,4.5709,4.5711,4.5708,4.5708,4.5711,4.5716,4.5715,4.571,4.5705,4.5705,4.5737,4.5738,0,0,4.5713,4.5723,4.572,4.5719,4.5722,4.5711,4.5711,4.5708,4.5713,4.5716,4.5715,4.571,4.5705,4.5705,4.5737,4.5738,0,0,0,4.5717,4.5724,4.5718,4.572,4.5718,4.5711,4.5711,4.5713,4.5711,4.5715,4.571,4.5705,4.5705,4.5737,4.5737,4.5763,0,0,0,4.5717,4.5726,4.5718,4.5724,4.5718,4.5716,4.5716,4.5711,4.571,4.571,4.5705,4.5705,4.5736,4.5737,4.5762,4.5774,0,0,0,4.5722,4.5726,4.5727,4.5725,4.5722,4.5715,4.5713,4.5711,4.5708,4.5705,4.5705,4.5736,4.5737,4.5761,4.5771,4.5786,0,0,0,4.573,4.5749,4.5727,4.5747,4.5722,4.5732,4.5712,4.5719,4.572,4.5705,4.5736,4.5737,4.576,4.577,4.5784,4.58,4.5807,0,0,4.5759,4.5753,4.5763,4.5744,4.576,4.5732,4.5752,4.5743,4.5732,4.5736,4.5737,4.5762,4.5771,4.5786,4.5845,4.5851,0,0,0,4.5776,4.5784,4.5786,4.5789,4.5783,4.5779,4.5766,4.5763,4.5766,4.5737,4.5771,4.5776,4.5784,4.5791,4.5796,4.5802,4.5741,4.5741,4.5741,4.5832,4.582,4.5837,4.5825,4.5827,4.5815,4.5815,4.5809,4.5794,4.5803,4.5803,4.5841,4.585,4.5853,4.586,4.5811,4.5811,4.5811,4.5811,4.5875,4.5885,4.5867,4.5877,4.5864,4.5873,4.5862,4.5852,4.5858,4.5839,4.5845,4.5826,4.586,4.5866,4.5813,4.5812,4.5812,4.5812,4.5812,4.591,4.5913,4.591,4.5913,4.5917,4.5903,4.5911,4.5898,4.5886,4.5892,4.5892,4.5892,4.589,4.5893,4.5893,4.5893,4.5893,4.5894,4.5894,4.5948,4.5944,4.5952,4.5949,4.595,4.5949,4.5938,4.5938,4.5935,4.5925,4.5925,4.5911,4.5866,4.5855,4.5896,4.5895,4.5895,4.5895,4.5895,4.5996,4.5984,4.5996,4.5997,4.5994,4.5999,4.5984,4.5986,4.5984,4.5988,4.5972,4.5942,4.5933,4.5929,4.592,4.5975,4.5975,4.5975,4.5975,4.6026,4.6021,4.6032,4.6035,4.6036,4.6024,4.6039,4.6031,4.6021,4.6019,4.6009,4.5997,4.5993,4.5987,4.5981,4.5973,4.604,4.604,4.604,4.6055,4.605,4.6066,4.6057,4.6053,4.6051,4.6065,4.6069,4.6054,4.6042,4.6018,4.6015,4.5994,4.5988,4.5974,4.5966,4.595,0,0]}]]